CAL064 LOWW-RCTP

Flight info

Callsign CAL064
Flight time N/A
Altitude 35000
Route ASPIB2C ADAMA Z648 VEDER L140 ALAMU DCT EPARI DCT NARKA DCT DINRO N743 UDROS DCT CRM UW71 TBN UR317 REBLO/N0479F370 M11 MATAL T916 SUBUT T923 ERLEV M11 RODAR A909 LEMOD N644 DI A466 SAKUV/N0482F390 A466 SULOM M890 LKN A201 LSO A599 LINSO/K0887S1190 A599 MEPAN/K0882S1250 A599 POU B330 TAMOT/N0478F410 B330 BIGEX DCT DALOL V631 ENVAR M750 EXTRA/N0469F290 M750 TONGA TONGA1A
Aircraft A359/H-V/N

Departure

Time 2026-04-23 09:39
Airport Vienna International Airport (LOWW)

Arrival

Time N/A
Airport Taiwan Taoyuan International Airport (RCTP)
Time Latitude Longitude Altitude Speed Heading
2026-04-23 09:10 48.11807 16.55982 615 ft 0 kts 79°
2026-04-23 09:28 48.11804 16.55960 632 ft 4 kts 85°
2026-04-23 09:28 48.11805 16.55926 629 ft 4 kts 117°
2026-04-23 09:29 48.11811 16.55911 629 ft 4 kts 169°
2026-04-23 09:29 48.11807 16.55908 625 ft 4 kts 187°
2026-04-23 09:29 48.11791 16.55890 629 ft 4 kts 222°
2026-04-23 09:29 48.11774 16.55860 629 ft 4 kts 229°
2026-04-23 09:30 48.11768 16.55863 629 ft 4 kts 173°
2026-04-23 09:30 48.11755 16.55881 625 ft 4 kts 130°
2026-04-23 09:30 48.11748 16.55903 625 ft 1 kts 116°
2026-04-23 09:32 48.11747 16.55905 625 ft 1 kts 116°
2026-04-23 09:33 48.11745 16.55912 626 ft 0 kts 116°
2026-04-23 09:33 48.11741 16.55923 625 ft 3 kts 116°
2026-04-23 09:33 48.11740 16.55927 624 ft 1 kts 116°
2026-04-23 09:33 48.11728 16.55963 624 ft 7 kts 116°
2026-04-23 09:34 48.11678 16.55977 625 ft 10 kts 198°
2026-04-23 09:34 48.11615 16.56037 621 ft 14 kts 123°
2026-04-23 09:34 48.11562 16.56197 625 ft 19 kts 116°
2026-04-23 09:34 48.11502 16.56378 621 ft 20 kts 116°
2026-04-23 09:35 48.11440 16.56566 629 ft 20 kts 116°
2026-04-23 09:35 48.11376 16.56759 625 ft 21 kts 116°
2026-04-23 09:35 48.11312 16.56956 626 ft 21 kts 116°
2026-04-23 09:35 48.11247 16.57159 622 ft 22 kts 116°
2026-04-23 09:36 48.11187 16.57340 623 ft 15 kts 116°
2026-04-23 09:36 48.11148 16.57461 624 ft 11 kts 116°
2026-04-23 09:36 48.11113 16.57569 620 ft 12 kts 116°
2026-04-23 09:36 48.11086 16.57640 628 ft 5 kts 135°
2026-04-23 09:37 48.11057 16.57651 626 ft 5 kts 178°
2026-04-23 09:37 48.11025 16.57634 627 ft 5 kts 207°
2026-04-23 09:37 48.11018 16.57628 625 ft 0 kts 208°
2026-04-23 09:37 48.11014 16.57625 624 ft 3 kts 208°
2026-04-23 09:38 48.10970 16.57593 629 ft 11 kts 205°
2026-04-23 09:38 48.10923 16.57526 626 ft 10 kts 264°
2026-04-23 09:38 48.10965 16.57375 627 ft 33 kts 295°
2026-04-23 09:38 48.11155 16.56794 628 ft 91 kts 296°
2026-04-23 09:39 48.11514 16.55687 624 ft 141 kts 295°
2026-04-23 09:39 48.11964 16.54333 1143 ft 143 kts 301°
2026-04-23 09:39 48.12400 16.52917 1609 ft 155 kts 291°
2026-04-23 09:39 48.12257 16.51255 1922 ft 184 kts 245°
2026-04-23 09:40 48.11145 16.50049 2123 ft 218 kts 201°
2026-04-23 09:40 48.09589 16.49795 2550 ft 228 kts 191°
2026-04-23 09:40 48.08040 16.49372 3122 ft 225 kts 202°
2026-04-23 09:40 48.06506 16.48832 3649 ft 231 kts 193°
2026-04-23 09:41 48.04869 16.49080 4043 ft 247 kts 162°
2026-04-23 09:41 48.03311 16.50337 4272 ft 265 kts 146°
2026-04-23 09:41 48.01722 16.51936 4502 ft 284 kts 146°
2026-04-23 09:41 48.00051 16.53587 5034 ft 291 kts 146°
2026-04-23 09:42 47.98339 16.55231 5661 ft 294 kts 146°
2026-04-23 09:42 47.96794 16.57228 6251 ft 293 kts 122°
2026-04-23 09:42 47.96036 16.59945 6890 ft 279 kts 90°
2026-04-23 09:42 47.96203 16.62742 7526 ft 268 kts 68°
2026-04-23 09:43 47.96786 16.65376 8115 ft 268 kts 64°
2026-04-23 09:43 47.97279 16.68050 8668 ft 278 kts 78°
2026-04-23 09:43 47.97025 16.71000 9307 ft 292 kts 105°
2026-04-23 09:43 47.95944 16.73575 9922 ft 305 kts 130°
2026-04-23 09:44 47.94169 16.75432 10347 ft 323 kts 153°
2026-04-23 09:44 47.91985 16.76503 10564 ft 339 kts 163°
2026-04-23 09:44 47.89637 16.77359 10799 ft 354 kts 165°
2026-04-23 09:44 47.87190 16.78210 11013 ft 368 kts 165°
2026-04-23 09:45 47.84650 16.79089 11226 ft 381 kts 165°
2026-04-23 09:45 47.82033 16.79991 11505 ft 390 kts 165°
2026-04-23 09:45 47.79374 16.80900 11946 ft 395 kts 165°
2026-04-23 09:45 47.76686 16.81810 12453 ft 397 kts 165°
2026-04-23 09:46 47.73976 16.82741 12923 ft 400 kts 162°
2026-04-23 09:46 47.71435 16.84363 13385 ft 396 kts 143°
2026-04-23 09:46 47.69406 16.87041 13882 ft 388 kts 123°
2026-04-23 09:46 47.68095 16.90472 14309 ft 379 kts 104°
2026-04-23 09:47 47.67621 16.94216 14735 ft 370 kts 87°
2026-04-23 09:47 47.67655 16.98029 15174 ft 370 kts 82°
2026-04-23 09:47 47.67795 17.01900 15624 ft 372 kts 82°
2026-04-23 09:47 47.67949 17.05687 16059 ft 373 kts 82°
2026-04-23 09:48 47.68123 17.09542 16489 ft 375 kts 82°
2026-04-23 09:48 47.68312 17.13420 16910 ft 378 kts 81°
2026-04-23 09:48 47.68507 17.17320 17320 ft 380 kts 82°
2026-04-23 09:48 47.68703 17.21240 17777 ft 382 kts 82°
2026-04-23 09:49 47.68899 17.25180 18207 ft 384 kts 82°
2026-04-23 09:49 47.69096 17.29152 18595 ft 386 kts 82°
2026-04-23 09:49 47.69291 17.33149 18941 ft 389 kts 82°
2026-04-23 09:49 47.69486 17.37169 19292 ft 391 kts 82°
2026-04-23 09:50 47.69681 17.41206 19644 ft 393 kts 82°
2026-04-23 09:50 47.69875 17.45267 19991 ft 396 kts 82°
2026-04-23 09:50 47.70068 17.49351 20343 ft 398 kts 82°
2026-04-23 09:50 47.70261 17.53456 20693 ft 400 kts 82°
2026-04-23 09:51 47.70452 17.57569 21034 ft 402 kts 82°
2026-04-23 09:51 47.70645 17.61750 21372 ft 404 kts 82°
2026-04-23 09:51 47.70836 17.65928 21729 ft 407 kts 82°
2026-04-23 09:51 47.70962 17.68702 21953 ft 408 kts 82°
2026-04-23 09:52 47.71215 17.74295 22407 ft 411 kts 82°
2026-04-23 09:52 47.71405 17.78549 22739 ft 414 kts 82°
2026-04-23 09:52 47.71596 17.82820 23074 ft 416 kts 82°
2026-04-23 09:52 47.71785 17.87117 23405 ft 418 kts 82°
2026-04-23 09:53 47.71974 17.91453 23732 ft 421 kts 83°
2026-04-23 09:53 47.72099 17.94328 23927 ft 422 kts 83°
2026-04-23 09:53 47.72285 17.98681 24222 ft 423 kts 83°
2026-04-23 09:53 47.72475 18.03056 24520 ft 425 kts 83°
2026-04-23 09:54 47.72662 18.07440 24821 ft 426 kts 83°
2026-04-23 09:54 47.72846 18.11837 25105 ft 428 kts 83°
2026-04-23 09:54 47.73028 18.16265 25400 ft 429 kts 83°
2026-04-23 09:54 47.73208 18.20707 25696 ft 431 kts 83°
2026-04-23 09:55 47.73389 18.25160 25994 ft 433 kts 83°
2026-04-23 09:55 47.73563 18.29628 26290 ft 435 kts 83°
2026-04-23 09:55 47.73526 18.34133 26593 ft 440 kts 90°
2026-04-23 09:55 47.73280 18.38683 26909 ft 442 kts 91°
2026-04-23 09:56 47.72970 18.43242 27217 ft 445 kts 92°
2026-04-23 09:56 47.72623 18.47814 27524 ft 447 kts 92°
2026-04-23 09:56 47.72260 18.52412 27836 ft 449 kts 92°
2026-04-23 09:56 47.71896 18.56969 28153 ft 450 kts 92°
2026-04-23 09:57 47.71521 18.61658 28434 ft 452 kts 92°
2026-04-23 09:57 47.71156 18.66244 28744 ft 454 kts 92°
2026-04-23 09:57 47.70787 18.70905 29039 ft 455 kts 92°
2026-04-23 09:57 47.70418 18.75587 29326 ft 457 kts 92°
2026-04-23 09:58 47.70047 18.80289 29605 ft 459 kts 92°
2026-04-23 09:58 47.69673 18.85001 29865 ft 461 kts 92°
2026-04-23 09:58 47.69293 18.89736 30135 ft 462 kts 92°
2026-04-23 09:58 47.68912 18.94483 30343 ft 464 kts 92°
2026-04-23 09:59 47.68527 18.99245 30555 ft 465 kts 92°
2026-04-23 09:59 47.68019 19.04001 30768 ft 469 kts 96°
2026-04-23 09:59 47.67356 19.08751 30981 ft 472 kts 98°
2026-04-23 09:59 47.66629 19.13507 31181 ft 473 kts 98°
2026-04-23 10:00 47.65891 19.18274 31395 ft 475 kts 98°
2026-04-23 10:00 47.65165 19.23057 31604 ft 475 kts 98°
2026-04-23 10:00 47.64466 19.27786 31909 ft 474 kts 98°
2026-04-23 10:00 47.63776 19.32544 32221 ft 472 kts 97°
2026-04-23 10:01 47.63096 19.37302 32516 ft 471 kts 97°
2026-04-23 10:01 47.62421 19.42059 32781 ft 470 kts 97°
2026-04-23 10:01 47.61748 19.46797 33076 ft 469 kts 97°
2026-04-23 10:01 47.61074 19.51518 33345 ft 469 kts 97°
2026-04-23 10:02 47.60398 19.56243 33625 ft 468 kts 97°
2026-04-23 10:02 47.59721 19.60943 33917 ft 466 kts 98°
2026-04-23 10:02 47.59044 19.65636 34167 ft 466 kts 98°
2026-04-23 10:02 47.58364 19.70327 34377 ft 466 kts 98°
2026-04-23 10:03 47.57683 19.75016 34524 ft 466 kts 98°
2026-04-23 10:03 47.57000 19.79707 34703 ft 466 kts 98°
2026-04-23 10:03 47.56313 19.84405 34893 ft 466 kts 98°
2026-04-23 10:03 47.55623 19.89106 35044 ft 468 kts 98°
2026-04-23 10:04 47.54933 19.93804 35058 ft 471 kts 98°
2026-04-23 10:04 47.53522 20.03356 35053 ft 473 kts 98°
2026-04-23 10:05 47.52115 20.12799 35048 ft 473 kts 98°
2026-04-23 10:05 47.50691 20.22313 35049 ft 473 kts 98°
2026-04-23 10:06 47.49261 20.31806 35050 ft 473 kts 98°
2026-04-23 10:06 47.47822 20.41313 35043 ft 473 kts 98°
2026-04-23 10:07 47.46377 20.50795 35048 ft 474 kts 99°
2026-04-23 10:07 47.44863 20.60286 35052 ft 476 kts 103°
2026-04-23 10:08 47.42254 20.69329 35041 ft 482 kts 114°
2026-04-23 10:08 47.38936 20.77966 35042 ft 484 kts 116°
2026-04-23 10:09 47.33741 20.90770 35050 ft 485 kts 116°
2026-04-23 10:09 47.30315 20.99281 35050 ft 485 kts 116°
2026-04-23 10:10 47.26886 21.07839 35047 ft 485 kts 116°
2026-04-23 10:10 47.23451 21.16402 35053 ft 485 kts 116°
2026-04-23 10:11 47.20007 21.24957 35047 ft 486 kts 116°
2026-04-23 10:11 47.16573 21.33454 35051 ft 486 kts 116°
2026-04-23 10:12 47.13112 21.41990 35049 ft 486 kts 116°
2026-04-23 10:12 47.09639 21.50532 35054 ft 487 kts 117°
2026-04-23 10:13 47.06161 21.59058 35050 ft 487 kts 117°
2026-04-23 10:13 47.02675 21.67582 35049 ft 487 kts 117°
2026-04-23 10:14 46.99183 21.76096 35049 ft 488 kts 117°
2026-04-23 10:14 46.95679 21.84606 35052 ft 488 kts 117°
2026-04-23 10:15 46.92172 21.93102 35051 ft 488 kts 117°
2026-04-23 10:15 46.88652 22.01602 35054 ft 488 kts 117°
2026-04-23 10:16 46.85124 22.10095 35055 ft 489 kts 117°
2026-04-23 10:16 46.81591 22.18574 35050 ft 489 kts 117°
2026-04-23 10:17 46.78069 22.27003 35057 ft 490 kts 117°
2026-04-23 10:17 46.74512 22.35489 35065 ft 490 kts 117°
2026-04-23 10:18 46.70945 22.43970 35059 ft 490 kts 117°
2026-04-23 10:18 46.67372 22.52443 35069 ft 491 kts 117°
2026-04-23 10:19 46.63795 22.60896 35056 ft 491 kts 118°
2026-04-23 10:19 46.60197 22.69374 35060 ft 492 kts 118°
2026-04-23 10:20 46.56611 22.77801 35048 ft 492 kts 118°
2026-04-23 10:20 46.52997 22.86266 35056 ft 493 kts 118°
2026-04-23 10:21 46.49390 22.94686 35043 ft 493 kts 118°
2026-04-23 10:21 46.45734 23.03196 35044 ft 494 kts 118°
2026-04-23 10:22 46.42113 23.11600 35029 ft 494 kts 118°
2026-04-23 10:22 46.38465 23.20039 35040 ft 494 kts 118°
2026-04-23 10:23 46.34803 23.28487 35023 ft 494 kts 118°
2026-04-23 10:23 46.31139 23.36911 35025 ft 495 kts 118°
2026-04-23 10:24 46.27487 23.45283 35016 ft 495 kts 118°
2026-04-23 10:24 46.23808 23.53693 35022 ft 495 kts 118°
2026-04-23 10:25 46.20115 23.62112 35018 ft 496 kts 119°
2026-04-23 10:25 46.16406 23.70538 35021 ft 496 kts 119°
2026-04-23 10:26 46.12694 23.78944 35016 ft 497 kts 119°
2026-04-23 10:26 46.08977 23.87341 35014 ft 497 kts 119°
2026-04-23 10:27 46.05274 23.95679 35013 ft 498 kts 119°
2026-04-23 10:27 46.01532 24.04079 35009 ft 498 kts 120°
2026-04-23 10:28 45.97778 24.12481 34998 ft 499 kts 120°
2026-04-23 10:28 45.94023 24.20860 35000 ft 499 kts 120°
2026-04-23 10:29 45.90257 24.29240 35000 ft 500 kts 120°
2026-04-23 10:29 45.86472 24.37620 34844 ft 498 kts 117°
2026-04-23 10:30 45.84595 24.41752 34993 ft 492 kts 117°
2026-04-23 10:30 45.82736 24.45854 35007 ft 489 kts 117°
2026-04-23 10:30 45.79037 24.54029 35008 ft 489 kts 117°
2026-04-23 10:31 45.75331 24.62195 35005 ft 489 kts 117°
2026-04-23 10:31 45.71617 24.70345 35002 ft 489 kts 117°
2026-04-23 10:32 45.67909 24.78451 34999 ft 489 kts 117°
2026-04-23 10:32 45.64178 24.86587 34998 ft 490 kts 117°
2026-04-23 10:33 45.60433 24.94726 34981 ft 490 kts 117°
2026-04-23 10:33 45.56680 25.02858 34997 ft 491 kts 117°
2026-04-23 10:34 45.52921 25.10979 34978 ft 491 kts 117°
2026-04-23 10:34 45.49152 25.19100 34972 ft 491 kts 118°
2026-04-23 10:35 45.45378 25.27215 34971 ft 491 kts 118°
2026-04-23 10:35 45.41598 25.35316 34970 ft 491 kts 118°
2026-04-23 10:36 45.37809 25.43412 34964 ft 491 kts 118°
2026-04-23 10:36 45.34018 25.51489 34955 ft 491 kts 118°
2026-04-23 10:37 45.30245 25.59502 34951 ft 491 kts 118°
2026-04-23 10:37 45.26440 25.67562 34951 ft 491 kts 118°
2026-04-23 10:38 45.22635 25.75597 34941 ft 490 kts 118°
2026-04-23 10:38 45.18828 25.83618 34943 ft 490 kts 118°
2026-04-23 10:39 45.15013 25.91634 34943 ft 491 kts 118°
2026-04-23 10:39 45.11190 25.99645 34935 ft 491 kts 118°
2026-04-23 10:40 45.08006 26.06296 34935 ft 491 kts 118°
2026-04-23 10:40 45.04167 26.14295 34938 ft 491 kts 119°
2026-04-23 10:41 45.00326 26.22281 34936 ft 491 kts 119°
2026-04-23 10:41 44.96477 26.30257 34934 ft 492 kts 119°
2026-04-23 10:42 44.92629 26.38211 34934 ft 492 kts 119°
2026-04-23 10:42 44.88747 26.46211 34931 ft 492 kts 119°
2026-04-23 10:43 44.84874 26.54170 34932 ft 492 kts 119°
2026-04-23 10:43 44.81000 26.62111 34931 ft 492 kts 119°
2026-04-23 10:44 44.77137 26.70007 34935 ft 492 kts 119°
2026-04-23 10:44 44.73245 26.77940 34920 ft 492 kts 120°
2026-04-23 10:45 44.69346 26.85867 34941 ft 493 kts 120°
2026-04-23 10:45 44.65441 26.93782 34929 ft 492 kts 120°
2026-04-23 10:46 44.61533 27.01682 34933 ft 493 kts 120°
2026-04-23 10:46 44.57615 27.09582 34933 ft 493 kts 120°
2026-04-23 10:47 44.53695 27.17462 34934 ft 493 kts 120°
2026-04-23 10:47 44.49767 27.25339 34935 ft 493 kts 120°
2026-04-23 10:48 44.45866 27.33140 34935 ft 493 kts 120°
2026-04-23 10:48 44.41927 27.40994 34937 ft 492 kts 120°
2026-04-23 10:49 44.37992 27.48820 34938 ft 492 kts 120°
2026-04-23 10:49 44.34044 27.56652 34942 ft 492 kts 121°
2026-04-23 10:50 44.30099 27.64456 34941 ft 492 kts 121°
2026-04-23 10:50 44.26140 27.72266 34940 ft 492 kts 121°
2026-04-23 10:51 44.22178 27.80061 34939 ft 492 kts 121°
2026-04-23 10:51 44.18213 27.87841 34941 ft 492 kts 121°
2026-04-23 10:52 44.14267 27.95563 34942 ft 493 kts 121°
2026-04-23 10:52 44.10262 28.03381 34941 ft 492 kts 121°
2026-04-23 10:53 44.06300 28.11094 34942 ft 493 kts 121°
2026-04-23 10:53 44.02310 28.18839 34947 ft 493 kts 122°
2026-04-23 10:54 43.98309 28.26589 34941 ft 493 kts 122°
2026-04-23 10:54 43.94308 28.34315 34940 ft 493 kts 122°
2026-04-23 10:55 43.90303 28.42029 34944 ft 493 kts 122°
2026-04-23 10:55 43.86291 28.49736 34942 ft 493 kts 122°
2026-04-23 10:56 43.82300 28.57383 34943 ft 493 kts 122°